Time,TemperatureF,DewpointF,PressureIn,WindDirection,WindDirectionDegrees,WindSpeedMPH,WindSpeedGustMPH,Humidity,HourlyPrecipIn,Conditions,Clouds,dailyrainin,SoftwareType,DateUTC
2013-05-21 00:01:00,73.8,50.0,30.16,SSW,205,0.0,0.0,43,0.00,,---,0.00,VWS V14.01,2013-05-21 04:01:00,
2013-05-21 00:02:00,73.8,50.0,30.16,SSW,205,0.0,0.0,43,0.00,,---,0.00,VWS V14.01,2013-05-21 04:02:00,
2013-05-21 00:03:00,73.6,49.9,30.16,SSW,205,0.0,0.0,43,0.00,,---,0.00,VWS V14.01,2013-05-21 04:03:00,
2013-05-21 00:04:00,73.6,49.9,30.16,SSW,205,0.0,0.0,43,0.00,,---,0.00,VWS V14.01,2013-05-21 04:04:00,
2013-05-21 00:09:00,73.2,50.2,30.16,SSW,205,0.0,0.0,44,0.00,,---,0.00,VWS V14.01,2013-05-21 04:09:00,
2013-05-21 00:14:00,72.7,49.7,30.16,SSW,205,0.0,0.0,44,0.00,,---,0.00,VWS V14.01,2013-05-21 04:14:00,
2013-05-21 00:16:00,72.5,50.2,30.16,SSW,205,0.0,0.0,45,0.00,,---,0.00,VWS V14.01,2013-05-21 04:16:00,
2013-05-21 00:21:00,72.1,49.9,30.13,SSW,205,0.0,0.0,45,0.00,,---,0.00,VWS V14.01,2013-05-21 04:21:00,
2013-05-21 00:26:00,72.1,51.1,30.13,SSW,205,0.0,0.0,48,0.00,,---,0.00,VWS V14.01,2013-05-21 04:26:00,
2013-05-21 00:32:00,72.3,51.3,30.13,SSW,205,0.0,0.0,48,0.00,,---,0.00,VWS V14.01,2013-05-21 04:32:00,
2013-05-21 00:37:00,72.5,51.4,30.13,SSW,208,0.0,0.0,48,0.00,,---,0.00,VWS V14.01,2013-05-21 04:37:00,
2013-05-21 00:42:00,72.9,51.2,30.13,SSW,208,0.0,0.0,46,0.00,,---,0.00,VWS V14.01,2013-05-21 04:42:00,
2013-05-21 00:47:00,73.0,51.3,30.13,SSW,208,0.0,0.0,46,0.00,,---,0.00,VWS V14.01,2013-05-21 04:47:00,
2013-05-21 00:52:00,73.0,51.3,30.13,SSW,208,0.0,0.0,46,0.00,,---,0.00,VWS V14.01,2013-05-21 04:52:00,
2013-05-21 00:57:00,73.2,51.5,30.13,SSW,208,0.0,0.0,46,0.00,,---,0.00,VWS V14.01,2013-05-21 04:57:00,
2013-05-21 01:02:00,73.2,51.5,30.13,SSW,207,0.0,0.0,46,0.00,,---,0.00,VWS V14.01,2013-05-21 05:02:00,
2013-05-21 01:07:00,73.2,51.5,30.13,SSW,209,0.0,0.0,46,0.00,,---,0.00,VWS V14.01,2013-05-21 05:07:00,
2013-05-21 01:12:00,73.2,51.5,30.13,SSW,209,0.0,0.0,46,0.00,,---,0.00,VWS V14.01,2013-05-21 05:12:00,
2013-05-21 01:17:00,73.2,51.5,30.13,SSW,209,0.0,0.0,46,0.00,,---,0.00,VWS V14.01,2013-05-21 05:17:00,
2013-05-21 01:22:00,73.0,51.3,30.13,South,191,0.0,0.0,46,0.00,,---,0.00,VWS V14.01,2013-05-21 05:22:00,
2013-05-21 01:27:00,73.2,52.1,30.13,SW,219,0.0,0.0,48,0.00,,---,0.00,VWS V14.01,2013-05-21 05:27:00,
2013-05-21 01:32:00,73.2,52.1,30.13,SW,220,2.2,2.7,48,0.00,,---,0.00,VWS V14.01,2013-05-21 05:32:00,
2013-05-21 01:37:00,73.4,52.3,30.13,SW,216,0.0,2.7,48,0.00,,---,0.00,VWS V14.01,2013-05-21 05:37:00,
2013-05-21 01:42:00,73.6,52.4,30.13,SW,227,0.0,2.7,48,0.00,,---,0.00,VWS V14.01,2013-05-21 05:42:00,
2013-05-21 01:47:00,73.8,52.6,30.13,SSW,195,0.0,3.1,48,0.00,,---,0.00,VWS V14.01,2013-05-21 05:47:00,
2013-05-21 01:52:00,73.9,52.8,30.13,SSW,213,2.7,3.1,48,0.00,,---,0.00,VWS V14.01,2013-05-21 05:52:00,
2013-05-21 01:57:00,74.1,52.9,30.13,SW,216,0.0,4.0,48,0.00,,---,0.00,VWS V14.01,2013-05-21 05:57:00,
2013-05-21 02:02:00,74.3,53.1,30.13,WSW,237,3.1,4.0,48,0.00,,---,0.00,VWS V14.01,2013-05-21 06:02:00,
2013-05-21 02:07:00,74.3,53.1,30.13,SW,222,0.0,4.0,48,0.00,,---,0.00,VWS V14.01,2013-05-21 06:07:00,
2013-05-21 02:12:00,74.3,53.1,30.13,SW,215,0.0,4.0,48,0.00,,---,0.00,VWS V14.01,2013-05-21 06:12:00,
2013-05-21 02:17:00,74.3,53.1,30.13,SW,222,0.0,6.3,48,0.00,,---,0.00,VWS V14.01,2013-05-21 06:17:00,
2013-05-21 02:22:00,74.5,53.2,30.13,SW,216,0.0,6.3,48,0.00,,---,0.00,VWS V14.01,2013-05-21 06:22:00,
2013-05-21 02:27:00,74.5,52.6,30.13,SW,225,5.8,6.3,46,0.00,,---,0.00,VWS V14.01,2013-05-21 06:27:00,
2013-05-21 02:32:00,74.5,52.6,30.13,SSW,194,0.0,6.3,46,0.00,,---,0.00,VWS V14.01,2013-05-21 06:32:00,
2013-05-21 02:37:00,74.3,53.1,30.13,SW,214,0.0,6.3,48,0.00,,---,0.00,VWS V14.01,2013-05-21 06:37:00,
2013-05-21 02:42:00,74.3,53.1,30.13,SW,236,0.0,6.3,48,0.00,,---,0.00,VWS V14.01,2013-05-21 06:42:00,
2013-05-21 02:47:00,74.1,52.9,30.13,SSW,197,0.0,6.3,48,0.00,,---,0.00,VWS V14.01,2013-05-21 06:47:00,
2013-05-21 02:52:00,74.1,52.9,30.13,West,264,3.1,6.3,48,0.00,,---,0.00,VWS V14.01,2013-05-21 06:52:00,
2013-05-21 02:58:00,74.1,52.9,30.13,SW,232,0.0,6.3,48,0.00,,---,0.00,VWS V14.01,2013-05-21 06:58:00,
2013-05-21 03:03:00,73.9,53.4,30.13,SW,232,0.0,0.0,49,0.00,,---,0.00,VWS V14.01,2013-05-21 07:03:00,
2013-05-21 03:08:00,73.8,53.2,30.13,SW,215,2.7,3.1,49,0.00,,---,0.00,VWS V14.01,2013-05-21 07:08:00,
2013-05-21 03:13:00,73.8,53.2,30.13,WSW,254,0.0,5.4,49,0.00,,---,0.00,VWS V14.01,2013-05-21 07:13:00,
2013-05-21 03:18:00,73.6,53.0,30.13,WSW,243,0.0,5.4,49,0.00,,---,0.00,VWS V14.01,2013-05-21 07:18:00,
2013-05-21 03:23:00,73.6,53.6,30.13,WSW,243,0.0,5.4,50,0.00,,---,0.00,VWS V14.01,2013-05-21 07:23:00,
2013-05-21 03:28:00,73.4,53.5,30.13,WSW,243,0.0,5.4,50,0.00,,---,0.00,VWS V14.01,2013-05-21 07:28:00,
2013-05-21 03:33:00,73.4,53.5,30.10,SW,229,0.0,5.4,50,0.00,,---,0.00,VWS V14.01,2013-05-21 07:33:00,
2013-05-21 03:38:00,73.4,53.5,30.10,South,191,0.0,5.4,50,0.00,,---,0.00,VWS V14.01,2013-05-21 07:38:00,
2013-05-21 03:43:00,73.4,53.5,30.10,SSW,209,0.0,5.4,50,0.00,,---,0.00,VWS V14.01,2013-05-21 07:43:00,
2013-05-21 03:48:00,73.4,53.5,30.10,SSW,213,0.0,5.4,50,0.00,,---,0.00,VWS V14.01,2013-05-21 07:48:00,
2013-05-21 03:53:00,73.4,53.5,30.10,SW,236,0.0,5.4,50,0.00,,---,0.00,VWS V14.01,2013-05-21 07:53:00,
2013-05-21 03:58:00,73.4,53.5,30.10,SW,224,0.0,5.4,50,0.00,,---,0.00,VWS V14.01,2013-05-21 07:58:00,
2013-05-21 04:03:00,73.4,53.5,30.10,SW,227,0.0,0.0,50,0.00,,---,0.00,VWS V14.01,2013-05-21 08:03:00,
2013-05-21 04:08:00,73.4,53.5,30.10,WSW,238,0.0,0.0,50,0.00,,---,0.00,VWS V14.01,2013-05-21 08:08:00,
2013-05-21 04:13:00,73.2,53.9,30.10,WNW,291,0.0,0.0,51,0.00,,---,0.00,VWS V14.01,2013-05-21 08:13:00,
2013-05-21 04:18:00,73.2,53.9,30.10,SW,227,0.0,4.0,51,0.00,,---,0.00,VWS V14.01,2013-05-21 08:18:00,
2013-05-21 04:23:00,73.2,53.9,30.10,SW,217,0.0,4.0,51,0.00,,---,0.00,VWS V14.01,2013-05-21 08:23:00,
2013-05-21 04:28:00,73.0,53.7,30.10,SW,223,0.0,4.0,51,0.00,,---,0.00,VWS V14.01,2013-05-21 08:28:00,
2013-05-21 04:33:00,73.0,53.7,30.10,SW,217,0.0,4.0,51,0.00,,---,0.00,VWS V14.01,2013-05-21 08:33:00,
2013-05-21 04:38:00,72.9,54.1,30.10,WSW,255,0.0,4.0,52,0.00,,---,0.00,VWS V14.01,2013-05-21 08:38:00,
2013-05-21 04:43:00,72.9,54.1,30.10,SW,226,0.0,4.0,52,0.00,,---,0.00,VWS V14.01,2013-05-21 08:43:00,
2013-05-21 04:48:00,72.9,54.1,30.10,SSW,208,0.0,4.0,52,0.00,,---,0.00,VWS V14.01,2013-05-21 08:48:00,
2013-05-21 04:53:00,72.7,54.0,30.10,SW,222,0.0,4.0,52,0.00,,---,0.00,VWS V14.01,2013-05-21 08:53:00,
2013-05-21 04:58:00,72.7,54.0,30.10,SW,219,0.0,4.0,52,0.00,,---,0.00,VWS V14.01,2013-05-21 08:58:00,
2013-05-21 05:03:00,72.7,54.0,30.07,SSW,198,2.2,3.1,52,0.00,,---,0.00,VWS V14.01,2013-05-21 09:03:00,
2013-05-21 05:08:00,72.5,54.4,30.07,SSW,212,0.0,3.1,53,0.00,,---,0.00,VWS V14.01,2013-05-21 09:08:00,
2013-05-21 05:13:00,72.5,54.4,30.07,South,183,0.0,3.1,53,0.00,,---,0.00,VWS V14.01,2013-05-21 09:13:00,
2013-05-21 05:18:00,72.3,54.2,30.10,SW,215,0.0,4.9,53,0.00,,---,0.00,VWS V14.01,2013-05-21 09:18:00,
2013-05-21 05:23:00,72.3,54.2,30.10,SW,217,0.0,4.9,53,0.00,,---,0.00,VWS V14.01,2013-05-21 09:23:00,
2013-05-21 05:28:00,72.3,54.8,30.10,SW,222,2.2,4.9,54,0.00,,---,0.00,VWS V14.01,2013-05-21 09:28:00,
2013-05-21 05:33:00,72.3,54.8,30.10,SW,219,0.0,4.9,54,0.00,,---,0.00,VWS V14.01,2013-05-21 09:33:00,
2013-05-21 05:38:00,72.3,54.8,30.10,SSW,201,0.0,4.9,54,0.00,,---,0.00,VWS V14.01,2013-05-21 09:38:00,
2013-05-21 05:43:00,72.3,54.8,30.10,SSW,212,0.0,4.9,54,0.00,,---,0.00,VWS V14.01,2013-05-21 09:43:00,
2013-05-21 05:48:00,72.3,54.8,30.10,SW,231,0.0,4.9,54,0.00,,---,0.00,VWS V14.01,2013-05-21 09:48:00,
2013-05-21 05:53:00,72.3,54.8,30.10,SSW,203,0.0,4.9,54,0.00,,---,0.00,VWS V14.01,2013-05-21 09:53:00,
2013-05-21 05:58:00,72.3,54.8,30.10,SSW,211,0.0,4.9,54,0.00,,---,0.00,VWS V14.01,2013-05-21 09:58:00,
2013-05-21 06:03:00,72.3,54.8,30.10,SW,216,0.0,0.0,54,0.00,,---,0.00,VWS V14.01,2013-05-21 10:03:00,
2013-05-21 06:08:00,72.3,54.8,30.10,SW,222,0.0,3.6,54,0.00,,---,0.00,VWS V14.01,2013-05-21 10:08:00,
2013-05-21 06:13:00,72.3,54.8,30.10,SW,223,2.7,3.6,54,0.00,,---,0.00,VWS V14.01,2013-05-21 10:13:00,
2013-05-21 06:18:00,72.3,54.8,30.10,SW,226,0.0,3.6,54,0.00,,---,0.00,VWS V14.01,2013-05-21 10:18:00,
2013-05-21 06:23:00,72.3,54.8,30.10,SW,217,0.0,3.6,54,0.00,,---,0.00,VWS V14.01,2013-05-21 10:23:00,
2013-05-21 06:28:00,72.1,54.6,30.10,SW,216,0.0,3.6,54,0.00,,---,0.00,VWS V14.01,2013-05-21 10:28:00,
2013-05-21 06:33:00,72.1,55.1,30.10,WSW,240,0.0,3.6,55,0.00,,---,0.00,VWS V14.01,2013-05-21 10:33:00,
2013-05-21 06:39:00,72.1,55.1,30.10,SW,225,0.0,4.0,55,0.00,,---,0.00,VWS V14.01,2013-05-21 10:39:00,
2013-05-21 06:44:00,72.1,55.1,30.10,SSW,209,0.0,7.2,55,0.00,,---,0.00,VWS V14.01,2013-05-21 10:44:00,
2013-05-21 06:49:00,72.1,55.1,30.10,WSW,237,5.8,7.2,55,0.00,,---,0.00,VWS V14.01,2013-05-21 10:49:00,
2013-05-21 06:54:00,72.1,55.1,30.10,SSW,206,0.0,7.2,55,0.00,,---,0.00,VWS V14.01,2013-05-21 10:54:00,
2013-05-21 06:59:00,72.0,55.5,30.10,SSW,195,4.9,7.2,56,0.00,,---,0.00,VWS V14.01,2013-05-21 10:59:00,
2013-05-21 07:04:00,72.0,55.5,30.10,SSW,197,0.0,0.0,56,0.00,,---,0.00,VWS V14.01,2013-05-21 11:04:00,
2013-05-21 07:09:00,72.1,55.7,30.10,SW,219,0.0,3.6,56,0.00,,---,0.00,VWS V14.01,2013-05-21 11:09:00,
2013-05-21 07:14:00,72.1,55.7,30.10,South,191,0.0,3.6,56,0.00,,---,0.00,VWS V14.01,2013-05-21 11:14:00,
2013-05-21 07:19:00,72.1,55.7,30.10,SSW,199,2.2,3.6,56,0.00,,---,0.00,VWS V14.01,2013-05-21 11:19:00,
2013-05-21 07:24:00,72.1,55.7,30.10,SSW,203,0.0,4.0,56,0.00,,---,0.00,VWS V14.01,2013-05-21 11:24:00,
2013-05-21 07:29:00,72.1,56.2,30.10,SSW,194,0.0,4.0,57,0.00,,---,0.00,VWS V14.01,2013-05-21 11:29:00,
2013-05-21 07:34:00,72.1,56.2,30.07,SSW,192,0.0,4.0,57,0.00,,---,0.00,VWS V14.01,2013-05-21 11:34:00,
2013-05-21 07:39:00,72.3,56.4,30.07,SSW,200,0.0,4.0,57,0.00,,---,0.00,VWS V14.01,2013-05-21 11:39:00,
2013-05-21 07:44:00,72.3,55.8,30.07,SSW,200,0.0,4.0,56,0.00,,---,0.00,VWS V14.01,2013-05-21 11:44:00,
2013-05-21 07:49:00,72.3,55.8,30.07,SSW,192,0.0,4.0,56,0.00,,---,0.00,VWS V14.01,2013-05-21 11:49:00,
2013-05-21 07:54:00,72.5,56.0,30.07,SSW,195,0.0,4.0,56,0.00,,---,0.00,VWS V14.01,2013-05-21 11:54:00,
2013-05-21 07:59:00,72.7,56.2,30.07,SSW,198,0.0,4.0,56,0.00,,---,0.00,VWS V14.01,2013-05-21 11:59:00,
2013-05-21 08:04:00,72.9,56.3,30.07,SSW,198,0.0,0.0,56,0.00,,---,0.00,VWS V14.01,2013-05-21 12:04:00,
2013-05-21 08:09:00,73.4,55.8,30.07,SSW,192,0.0,3.6,54,0.00,,---,0.00,VWS V14.01,2013-05-21 12:09:00,
2013-05-21 08:14:00,74.3,56.0,30.07,South,183,0.0,3.6,53,0.00,,---,0.00,VWS V14.01,2013-05-21 12:14:00,
2013-05-21 08:19:00,75.0,55.0,30.07,SSW,193,0.0,3.6,50,0.00,,---,0.00,VWS V14.01,2013-05-21 12:19:00,
2013-05-21 08:24:00,75.6,55.5,30.07,SSW,197,0.0,3.6,50,0.00,,---,0.00,VWS V14.01,2013-05-21 12:24:00,
2013-05-21 08:29:00,76.3,54.9,30.07,SSW,198,0.0,3.6,48,0.00,,---,0.00,VWS V14.01,2013-05-21 12:29:00,
2013-05-21 08:34:00,76.6,54.6,30.07,SSW,211,0.0,4.9,46,0.00,,---,0.00,VWS V14.01,2013-05-21 12:34:00,
2013-05-21 08:39:00,77.2,53.8,30.07,SSW,202,0.0,5.4,44,0.00,,---,0.00,VWS V14.01,2013-05-21 12:39:00,
2013-05-21 08:44:00,77.9,53.8,30.07,South,169,2.2,5.4,43,0.00,,---,0.00,VWS V14.01,2013-05-21 12:44:00,
2013-05-21 08:49:00,78.4,54.2,30.10,SW,220,2.7,5.8,43,0.00,,---,0.00,VWS V14.01,2013-05-21 12:49:00,
2013-05-21 08:54:00,78.8,53.2,30.10,South,190,2.2,5.8,41,0.00,,---,0.00,VWS V14.01,2013-05-21 12:54:00,
2013-05-21 08:59:00,79.0,54.0,30.10,NE,37,0.0,5.8,42,0.00,,---,0.00,VWS V14.01,2013-05-21 12:59:00,
2013-05-21 09:04:00,79.5,53.1,30.07,NE,45,2.7,4.5,40,0.00,,---,0.00,VWS V14.01,2013-05-21 13:04:00,
2013-05-21 09:09:00,80.1,52.0,30.07,SSW,212,2.2,5.4,38,0.00,,---,0.00,VWS V14.01,2013-05-21 13:09:00,
2013-05-21 09:14:00,79.5,52.3,30.07,NW,316,0.0,5.4,39,0.00,,---,0.00,VWS V14.01,2013-05-21 13:14:00,
2013-05-21 09:19:00,79.7,51.7,30.10,SW,226,0.0,5.4,38,0.00,,---,0.00,VWS V14.01,2013-05-21 13:19:00,
2013-05-21 09:24:00,80.1,52.8,30.10,South,191,2.2,7.6,39,0.00,,---,0.00,VWS V14.01,2013-05-21 13:24:00,
2013-05-21 09:29:00,80.4,51.6,30.10,SW,224,2.2,8.1,37,0.00,,---,0.00,VWS V14.01,2013-05-21 13:29:00,
2013-05-21 09:34:00,81.1,52.2,30.10,NNW,336,0.0,8.1,37,0.00,,---,0.00,VWS V14.01,2013-05-21 13:34:00,
2013-05-21 09:39:00,81.5,50.9,30.10,SSW,213,9.6,9.6,35,0.00,,---,0.00,VWS V14.01,2013-05-21 13:39:00,
2013-05-21 09:44:00,81.9,51.2,30.10,NNW,332,3.1,9.6,35,0.00,,---,0.00,VWS V14.01,2013-05-21 13:44:00,
2013-05-21 09:49:00,81.9,49.5,30.13,NNE,28,3.1,9.6,32,0.00,,---,0.00,VWS V14.01,2013-05-21 13:49:00,
2013-05-21 09:54:00,81.9,49.5,30.13,South,186,3.6,9.6,32,0.00,,---,0.00,VWS V14.01,2013-05-21 13:54:00,
2013-05-21 10:00:00,82.2,47.0,30.13,South,186,2.7,9.6,29,0.00,,---,0.00,VWS V14.01,2013-05-21 14:00:00,
2013-05-21 10:05:00,81.9,47.6,30.13,West,261,0.0,8.7,30,0.00,,---,0.00,VWS V14.01,2013-05-21 14:05:00,
2013-05-21 10:10:00,81.9,44.6,30.13,South,172,3.6,8.7,27,0.00,,---,0.00,VWS V14.01,2013-05-21 14:10:00,
2013-05-21 10:15:00,82.2,42.8,30.13,NE,39,3.1,8.7,25,0.00,,---,0.00,VWS V14.01,2013-05-21 14:15:00,
2013-05-21 10:20:00,82.6,41.9,30.13,SSW,195,3.1,8.7,24,0.00,,---,0.00,VWS V14.01,2013-05-21 14:20:00,
2013-05-21 10:25:00,82.2,42.8,30.13,WNW,288,4.9,8.7,25,0.00,,---,0.00,VWS V14.01,2013-05-21 14:25:00,
2013-05-21 10:30:00,82.9,44.5,30.13,NW,322,5.8,8.7,26,0.00,,---,0.00,VWS V14.01,2013-05-21 14:30:00,
2013-05-21 10:35:00,82.8,45.4,30.10,ENE,66,0.0,8.7,27,0.00,,---,0.00,VWS V14.01,2013-05-21 14:35:00,
2013-05-21 10:40:00,82.8,44.3,30.10,West,268,2.2,8.7,26,0.00,,---,0.00,VWS V14.01,2013-05-21 14:40:00,
2013-05-21 10:45:00,82.9,45.6,30.10,West,266,3.1,8.7,27,0.00,,---,0.00,VWS V14.01,2013-05-21 14:45:00,
2013-05-21 10:50:00,83.3,44.8,30.13,NNE,12,5.8,10.5,26,0.00,,---,0.00,VWS V14.01,2013-05-21 14:50:00,
2013-05-21 10:55:00,83.5,43.8,30.13,WSW,249,0.0,10.5,25,0.00,,---,0.00,VWS V14.01,2013-05-21 14:55:00,
2013-05-21 11:00:00,83.5,44.9,30.13,South,183,2.7,10.5,26,0.00,,---,0.00,VWS V14.01,2013-05-21 15:00:00,
2013-05-21 11:05:00,83.3,43.7,30.13,WNW,294,0.0,10.1,25,0.00,,---,0.00,VWS V14.01,2013-05-21 15:05:00,
2013-05-21 11:10:00,82.2,43.9,30.13,NW,315,4.9,10.1,26,0.00,,---,0.00,VWS V14.01,2013-05-21 15:10:00,
2013-05-21 11:15:00,81.1,41.8,30.13,SW,231,4.0,10.1,25,0.00,,---,0.00,VWS V14.01,2013-05-21 15:15:00,
2013-05-21 11:20:00,80.8,41.5,30.13,SSW,205,3.1,10.1,25,0.00,,---,0.00,VWS V14.01,2013-05-21 15:20:00,
2013-05-21 11:25:00,81.3,44.2,30.13,SSW,202,0.0,10.1,27,0.00,,---,0.00,VWS V14.01,2013-05-21 15:25:00,
2013-05-21 11:30:00,82.0,43.7,30.13,ESE,102,0.0,10.1,26,0.00,,---,0.00,VWS V14.01,2013-05-21 15:30:00,
2013-05-21 11:35:00,82.2,42.8,30.13,WNW,299,2.7,13.2,25,0.00,,---,0.00,VWS V14.01,2013-05-21 15:35:00,
2013-05-21 11:40:00,82.2,41.6,30.13,South,181,5.4,13.2,24,0.00,,---,0.00,VWS V14.01,2013-05-21 15:40:00,
2013-05-21 11:45:00,81.9,42.5,30.13,SW,215,5.4,13.2,25,0.00,,---,0.00,VWS V14.01,2013-05-21 15:45:00,
2013-05-21 11:50:00,82.4,41.8,30.13,SW,235,5.4,13.2,24,0.00,,---,0.00,VWS V14.01,2013-05-21 15:50:00,
2013-05-21 11:55:00,82.9,43.4,30.13,ENE,63,0.0,13.2,25,0.00,,---,0.00,VWS V14.01,2013-05-21 15:55:00,
2013-05-21 12:00:00,83.1,41.2,30.13,ESE,103,0.0,0.0,23,0.00,,---,0.00,VWS V14.01,2013-05-21 16:00:00,
2013-05-21 12:05:00,82.6,43.1,30.10,North,6,0.0,4.0,25,0.00,,---,0.00,VWS V14.01,2013-05-21 16:05:00,
2013-05-21 12:10:00,82.2,41.6,30.10,NNE,20,2.2,8.3,24,0.00,,---,0.00,VWS V14.01,2013-05-21 16:10:00,
2013-05-21 12:15:00,82.0,41.5,30.10,East,85,0.0,8.3,24,0.00,,---,0.00,VWS V14.01,2013-05-21 16:15:00,
2013-05-21 12:20:00,81.7,41.2,30.10,West,270,2.2,8.3,24,0.00,,---,0.00,VWS V14.01,2013-05-21 16:20:00,
2013-05-21 12:25:00,81.5,42.2,30.10,SSW,193,0.0,8.3,25,0.00,,---,0.00,VWS V14.01,2013-05-21 16:25:00,
2013-05-21 12:30:00,81.1,41.8,30.10,North,353,3.1,8.3,25,0.00,,---,0.00,VWS V14.01,2013-05-21 16:30:00,
2013-05-21 12:35:00,81.0,42.8,30.10,NNW,336,0.0,8.3,26,0.00,,---,0.00,VWS V14.01,2013-05-21 16:35:00,
2013-05-21 12:40:00,81.3,42.0,30.10,NNE,33,2.2,8.3,25,0.00,,---,0.00,VWS V14.01,2013-05-21 16:40:00,
2013-05-21 12:45:00,82.0,42.6,30.10,South,186,0.0,8.3,25,0.00,,---,0.00,VWS V14.01,2013-05-21 16:45:00,
2013-05-21 12:50:00,82.6,43.1,30.10,SSW,192,0.0,8.3,25,0.00,,---,0.00,VWS V14.01,2013-05-21 16:50:00,
2013-05-21 12:55:00,83.1,42.4,30.10,SW,215,0.0,8.3,24,0.00,,---,0.00,VWS V14.01,2013-05-21 16:55:00,
2013-05-21 13:00:00,82.9,42.2,30.10,SW,229,3.1,4.0,24,0.00,,---,0.00,VWS V14.01,2013-05-21 17:00:00,
2013-05-21 13:06:00,83.1,42.4,30.10,South,178,3.1,6.3,24,0.00,,---,0.00,VWS V14.01,2013-05-21 17:06:00,
2013-05-21 13:11:00,83.1,42.4,30.10,WSW,249,0.0,6.3,24,0.00,,---,0.00,VWS V14.01,2013-05-21 17:11:00,
2013-05-21 13:16:00,82.4,41.8,30.10,NNW,340,0.0,6.3,24,0.00,,---,0.00,VWS V14.01,2013-05-21 17:16:00,
2013-05-21 13:21:00,81.5,42.2,30.10,NNE,16,0.0,6.3,25,0.00,,---,0.00,VWS V14.01,2013-05-21 17:21:00,
2013-05-21 13:26:00,81.9,43.6,30.10,SSE,154,0.0,7.6,26,0.00,,---,0.00,VWS V14.01,2013-05-21 17:26:00,
2013-05-21 13:31:00,81.5,41.0,30.10,WSW,243,6.3,7.6,24,0.00,,---,0.00,VWS V14.01,2013-05-21 17:31:00,
2013-05-21 13:36:00,81.3,42.0,30.10,WSW,240,0.0,7.6,25,0.00,,---,0.00,VWS V14.01,2013-05-21 17:36:00,
2013-05-21 13:41:00,80.8,41.5,30.10,SSW,209,4.0,7.6,25,0.00,,---,0.00,VWS V14.01,2013-05-21 17:41:00,
2013-05-21 13:46:00,80.4,43.4,30.10,WSW,256,0.0,7.6,27,0.00,,---,0.00,VWS V14.01,2013-05-21 17:46:00,
2013-05-21 13:51:00,80.2,43.3,30.10,West,272,0.0,8.1,27,0.00,,---,0.00,VWS V14.01,2013-05-21 17:51:00,
2013-05-21 13:56:00,80.6,41.4,30.10,SW,223,3.6,8.1,25,0.00,,---,0.00,VWS V14.01,2013-05-21 17:56:00,
2013-05-21 14:01:00,81.0,41.7,30.10,SSE,153,0.0,0.0,25,0.00,,---,0.00,VWS V14.01,2013-05-21 18:01:00,
2013-05-21 14:06:00,81.3,43.1,30.10,WNW,294,0.0,5.8,26,0.00,,---,0.00,VWS V14.01,2013-05-21 18:06:00,
2013-05-21 14:11:00,81.9,42.5,30.10,SSE,147,2.7,6.3,25,0.00,,---,0.00,VWS V14.01,2013-05-21 18:11:00,
2013-05-21 14:16:00,81.9,41.3,30.10,WSW,247,0.0,7.6,24,0.00,,---,0.00,VWS V14.01,2013-05-21 18:16:00,
2013-05-21 14:21:00,81.9,41.3,30.10,WSW,254,0.0,7.6,24,0.00,,---,0.00,VWS V14.01,2013-05-21 18:21:00,
2013-05-21 14:26:00,81.9,42.5,30.10,WSW,256,3.1,7.6,25,0.00,,---,0.00,VWS V14.01,2013-05-21 18:26:00,
2013-05-21 14:31:00,82.2,41.6,30.10,SSW,206,0.0,7.6,24,0.00,,---,0.00,VWS V14.01,2013-05-21 18:31:00,
2013-05-21 14:36:00,82.9,42.2,30.10,WSW,241,3.6,7.6,24,0.00,,---,0.00,VWS V14.01,2013-05-21 18:36:00,
2013-05-21 14:41:00,83.1,42.4,30.10,ESE,106,0.0,7.6,24,0.00,,---,0.00,VWS V14.01,2013-05-21 18:41:00,
2013-05-21 14:46:00,83.8,41.8,30.10,SSW,194,4.0,7.6,23,0.00,,---,0.00,VWS V14.01,2013-05-21 18:46:00,
2013-05-21 14:51:00,84.6,41.1,30.10,WNW,283,0.0,7.6,22,0.00,,---,0.00,VWS V14.01,2013-05-21 18:51:00,
2013-05-21 14:56:00,85.3,41.7,30.10,ENE,62,2.7,7.6,22,0.00,,---,0.00,VWS V14.01,2013-05-21 18:56:00,
2013-05-21 15:01:00,85.3,41.7,30.10,SW,225,3.1,4.0,22,0.00,,---,0.00,VWS V14.01,2013-05-21 19:01:00,
2013-05-21 15:06:00,85.3,41.7,30.07,North,353,0.0,8.3,22,0.00,,---,0.00,VWS V14.01,2013-05-21 19:06:00,
2013-05-21 15:11:00,85.5,41.8,30.07,West,265,5.8,8.3,22,0.00,,---,0.00,VWS V14.01,2013-05-21 19:11:00,
2013-05-21 15:16:00,86.0,41.0,30.07,WSW,251,0.0,8.3,21,0.00,,---,0.00,VWS V14.01,2013-05-21 19:16:00,
2013-05-21 15:21:00,86.4,41.3,30.07,WNW,291,4.9,8.3,21,0.00,,---,0.00,VWS V14.01,2013-05-21 19:21:00,
2013-05-21 15:26:00,86.2,41.1,30.07,ENE,64,2.2,8.3,21,0.00,,---,0.00,VWS V14.01,2013-05-21 19:26:00,
2013-05-21 15:31:00,86.2,41.1,30.07,SSW,211,2.7,8.3,21,0.00,,---,0.00,VWS V14.01,2013-05-21 19:31:00,
2013-05-21 15:36:00,86.5,41.4,30.07,WNW,298,0.0,10.5,21,0.00,,---,0.00,VWS V14.01,2013-05-21 19:36:00,
2013-05-21 15:41:00,86.7,41.6,30.07,SE,138,3.6,10.5,21,0.00,,---,0.00,VWS V14.01,2013-05-21 19:41:00,
2013-05-21 15:47:00,86.7,41.6,30.07,WSW,257,2.7,10.5,21,0.00,,---,0.00,VWS V14.01,2013-05-21 19:47:00,
2013-05-21 15:52:00,86.9,41.7,30.10,NNE,16,3.6,10.5,21,0.00,,---,0.00,VWS V14.01,2013-05-21 19:52:00,
2013-05-21 15:57:00,87.1,41.8,30.10,SSW,207,3.1,10.5,21,0.00,,---,0.00,VWS V14.01,2013-05-21 19:57:00,
2013-05-21 16:02:00,87.4,42.2,30.10,SSE,147,3.6,7.6,21,0.00,,---,0.00,VWS V14.01,2013-05-21 20:02:00,
2013-05-21 16:07:00,87.6,42.3,30.07,SE,127,2.2,10.5,21,0.00,,---,0.00,VWS V14.01,2013-05-21 20:07:00,
2013-05-21 16:12:00,87.3,42.0,30.07,NNW,345,7.2,10.5,21,0.00,,---,0.00,VWS V14.01,2013-05-21 20:12:00,
2013-05-21 16:17:00,87.1,41.8,30.07,North,357,5.8,10.5,21,0.00,,---,0.00,VWS V14.01,2013-05-21 20:17:00,
2013-05-21 16:22:00,86.9,41.7,30.07,North,4,3.6,10.5,21,0.00,,---,0.00,VWS V14.01,2013-05-21 20:22:00,
2013-05-21 16:27:00,86.9,41.7,30.07,SW,236,3.1,10.5,21,0.00,,---,0.00,VWS V14.01,2013-05-21 20:27:00,
2013-05-21 16:32:00,86.9,41.7,30.07,North,353,8.3,10.5,21,0.00,,---,0.00,VWS V14.01,2013-05-21 20:32:00,
2013-05-21 16:37:00,87.1,40.5,30.07,SW,216,3.1,10.5,19,0.00,,---,0.00,VWS V14.01,2013-05-21 20:37:00,
2013-05-21 16:42:00,86.7,41.6,30.07,West,265,3.1,10.5,21,0.00,,---,0.00,VWS V14.01,2013-05-21 20:42:00,
2013-05-21 16:47:00,85.6,40.7,30.07,SW,234,0.0,10.5,21,0.00,,---,0.00,VWS V14.01,2013-05-21 20:47:00,
2013-05-21 16:52:00,85.1,40.2,30.07,WNW,301,8.1,10.5,21,0.00,,---,0.00,VWS V14.01,2013-05-21 20:52:00,
2013-05-21 16:57:00,84.6,39.8,30.07,South,182,3.6,10.5,21,0.00,,---,0.00,VWS V14.01,2013-05-21 20:57:00,
2013-05-21 17:02:00,84.2,39.5,30.07,North,357,3.6,5.8,21,0.00,,---,0.00,VWS V14.01,2013-05-21 21:02:00,
2013-05-21 17:07:00,84.4,41.0,30.07,SSE,153,0.0,5.8,22,0.00,,---,0.00,VWS V14.01,2013-05-21 21:07:00,
2013-05-21 17:12:00,84.9,41.4,30.07,ENE,57,2.7,6.7,22,0.00,,---,0.00,VWS V14.01,2013-05-21 21:12:00,
2013-05-21 17:17:00,85.3,41.7,30.07,WNW,300,2.7,10.5,22,0.00,,---,0.00,VWS V14.01,2013-05-21 21:17:00,
2013-05-21 17:22:00,85.5,41.8,30.07,East,84,0.0,10.5,22,0.00,,---,0.00,VWS V14.01,2013-05-21 21:22:00,
2013-05-21 17:27:00,85.5,41.8,30.07,West,276,3.1,10.5,22,0.00,,---,0.00,VWS V14.01,2013-05-21 21:27:00,
2013-05-21 17:32:00,85.6,40.7,30.07,ENE,67,0.0,10.5,21,0.00,,---,0.00,VWS V14.01,2013-05-21 21:32:00,
2013-05-21 17:37:00,85.5,41.8,30.07,North,8,4.0,10.5,22,0.00,,---,0.00,VWS V14.01,2013-05-21 21:37:00,
2013-05-21 17:42:00,85.3,40.4,30.07,West,265,3.6,10.5,21,0.00,,---,0.00,VWS V14.01,2013-05-21 21:42:00,
2013-05-21 17:47:00,85.3,41.7,30.07,North,7,0.0,10.5,22,0.00,,---,0.00,VWS V14.01,2013-05-21 21:47:00,
2013-05-21 17:52:00,85.5,41.8,30.07,West,267,2.7,10.5,22,0.00,,---,0.00,VWS V14.01,2013-05-21 21:52:00,
2013-05-21 17:57:00,85.8,42.1,30.07,North,353,0.0,10.5,22,0.00,,---,0.00,VWS V14.01,2013-05-21 21:57:00,
2013-05-21 18:02:00,85.5,41.8,30.07,North,11,0.0,6.3,22,0.00,,---,0.00,VWS V14.01,2013-05-21 22:02:00,
2013-05-21 18:07:00,85.3,41.7,30.07,NNW,329,4.0,8.1,22,0.00,,---,0.00,VWS V14.01,2013-05-21 22:07:00,
2013-05-21 18:12:00,85.5,41.8,30.07,North,353,5.8,8.7,22,0.00,,---,0.00,VWS V14.01,2013-05-21 22:12:00,
2013-05-21 18:17:00,85.1,40.2,30.07,North,353,5.8,8.7,21,0.00,,---,0.00,VWS V14.01,2013-05-21 22:17:00,
2013-05-21 18:22:00,85.1,41.5,30.07,East,97,4.5,8.7,22,0.00,,---,0.00,VWS V14.01,2013-05-21 22:22:00,
2013-05-21 18:27:00,85.3,40.4,30.07,WSW,254,0.0,8.7,21,0.00,,---,0.00,VWS V14.01,2013-05-21 22:27:00,
2013-05-21 18:33:00,84.9,40.1,30.04,ESE,123,0.0,8.7,21,0.00,,---,0.00,VWS V14.01,2013-05-21 22:33:00,
2013-05-21 18:38:00,84.4,39.6,30.04,NNW,335,0.0,8.7,21,0.00,,---,0.00,VWS V14.01,2013-05-21 22:38:00,
2013-05-21 18:43:00,84.4,41.0,30.04,East,95,0.0,8.7,22,0.00,,---,0.00,VWS V14.01,2013-05-21 22:43:00,
2013-05-21 18:48:00,83.8,40.5,30.04,SW,216,0.0,8.7,22,0.00,,---,0.00,VWS V14.01,2013-05-21 22:48:00,
2013-05-21 18:53:00,83.8,40.5,30.04,North,350,0.0,8.7,22,0.00,,---,0.00,VWS V14.01,2013-05-21 22:53:00,
2013-05-21 18:58:00,83.8,40.5,30.04,North,353,4.0,8.7,22,0.00,,---,0.00,VWS V14.01,2013-05-21 22:58:00,
2013-05-21 19:03:00,83.7,40.3,30.04,ENE,71,0.0,3.6,22,0.00,,---,0.00,VWS V14.01,2013-05-21 23:03:00,
2013-05-21 19:08:00,83.5,40.2,30.04,North,5,2.7,6.3,22,0.00,,---,0.00,VWS V14.01,2013-05-21 23:08:00,
2013-05-21 19:13:00,83.1,39.9,30.04,North,357,4.9,6.3,22,0.00,,---,0.00,VWS V14.01,2013-05-21 23:13:00,
2013-05-21 19:18:00,82.9,39.8,30.04,SW,221,2.7,6.3,22,0.00,,---,0.00,VWS V14.01,2013-05-21 23:18:00,
2013-05-21 19:23:00,82.8,40.9,30.04,WSW,242,0.0,6.3,23,0.00,,---,0.00,VWS V14.01,2013-05-21 23:23:00,
2013-05-21 19:28:00,82.8,40.9,30.04,SE,131,0.0,6.3,23,0.00,,---,0.00,VWS V14.01,2013-05-21 23:28:00,
2013-05-21 19:33:00,82.8,39.6,30.04,WSW,241,0.0,6.3,22,0.00,,---,0.00,VWS V14.01,2013-05-21 23:33:00,
2013-05-21 19:38:00,82.8,39.6,30.04,NE,43,0.0,6.3,22,0.00,,---,0.00,VWS V14.01,2013-05-21 23:38:00,
2013-05-21 19:43:00,82.9,41.0,30.04,SE,137,0.0,6.3,23,0.00,,---,0.00,VWS V14.01,2013-05-21 23:43:00,
2013-05-21 19:48:00,83.1,41.2,30.04,WSW,245,0.0,6.3,23,0.00,,---,0.00,VWS V14.01,2013-05-21 23:48:00,
2013-05-21 19:53:00,83.1,41.2,30.04,North,357,0.0,6.3,23,0.00,,---,0.00,VWS V14.01,2013-05-21 23:53:00,
2013-05-21 19:58:00,82.9,39.8,30.04,North,357,0.0,6.3,22,0.00,,---,0.00,VWS V14.01,2013-05-21 23:58:00,
2013-05-21 20:03:00,82.6,39.5,30.04,North,0,0.0,0.0,22,0.00,,---,0.00,VWS V14.01,2013-05-22 00:03:00,
2013-05-21 20:08:00,82.4,40.6,30.04,East,94,0.0,0.0,23,0.00,,---,0.00,VWS V14.01,2013-05-22 00:08:00,
2013-05-21 20:13:00,82.0,40.3,30.04,NNW,334,3.1,3.1,23,0.00,,---,0.00,VWS V14.01,2013-05-22 00:13:00,
2013-05-21 20:18:00,81.9,40.1,30.04,SSW,201,0.0,3.1,23,0.00,,---,0.00,VWS V14.01,2013-05-22 00:18:00,
2013-05-21 20:23:00,81.5,39.8,30.04,WSW,254,0.0,3.1,23,0.00,,---,0.00,VWS V14.01,2013-05-22 00:23:00,
2013-05-21 20:28:00,81.3,39.7,30.04,WSW,254,0.0,3.1,23,0.00,,---,0.00,VWS V14.01,2013-05-22 00:28:00,
2013-05-21 20:33:00,81.1,39.5,30.04,WSW,254,0.0,3.1,23,0.00,,---,0.00,VWS V14.01,2013-05-22 00:33:00,
2013-05-21 20:38:00,80.8,39.2,30.04,WSW,256,0.0,3.1,23,0.00,,---,0.00,VWS V14.01,2013-05-22 00:38:00,
2013-05-21 20:43:00,80.2,40.0,30.04,WSW,256,0.0,3.1,24,0.00,,---,0.00,VWS V14.01,2013-05-22 00:43:00,
2013-05-21 20:48:00,79.9,39.7,30.04,WSW,256,0.0,3.1,24,0.00,,---,0.00,VWS V14.01,2013-05-22 00:48:00,
2013-05-21 20:53:00,79.5,40.5,30.04,WSW,256,0.0,3.1,25,0.00,,---,0.00,VWS V14.01,2013-05-22 00:53:00,
2013-05-21 20:58:00,79.0,40.0,30.04,WSW,256,0.0,3.1,25,0.00,,---,0.00,VWS V14.01,2013-05-22 00:58:00,
2013-05-21 21:03:00,78.4,40.7,30.04,WSW,256,0.0,0.0,26,0.00,,---,0.00,VWS V14.01,2013-05-22 01:03:00,
2013-05-21 21:08:00,78.1,41.4,30.04,WSW,256,0.0,0.0,27,0.00,,---,0.00,VWS V14.01,2013-05-22 01:08:00,
2013-05-21 21:13:00,77.5,42.0,30.04,WSW,256,0.0,0.0,28,0.00,,---,0.00,VWS V14.01,2013-05-22 01:13:00,
2013-05-21 21:18:00,77.7,42.1,30.04,WSW,256,0.0,0.0,28,0.00,,---,0.00,VWS V14.01,2013-05-22 01:18:00,
2013-05-21 21:23:00,77.7,42.1,30.04,WSW,256,0.0,0.0,28,0.00,,---,0.00,VWS V14.01,2013-05-22 01:23:00,
2013-05-21 21:28:00,77.7,42.1,30.04,WSW,256,0.0,0.0,28,0.00,,---,0.00,VWS V14.01,2013-05-22 01:28:00,
2013-05-21 21:33:00,77.7,42.1,30.04,WSW,256,0.0,0.0,28,0.00,,---,0.00,VWS V14.01,2013-05-22 01:33:00,
2013-05-21 21:38:00,77.7,42.1,30.04,WSW,256,0.0,0.0,28,0.00,,---,0.00,VWS V14.01,2013-05-22 01:38:00,
2013-05-21 21:43:00,77.4,42.8,30.04,WSW,256,0.0,0.0,29,0.00,,---,0.00,VWS V14.01,2013-05-22 01:43:00,
2013-05-21 21:48:00,77.2,43.6,30.07,WSW,256,0.0,0.0,30,0.00,,---,0.00,VWS V14.01,2013-05-22 01:48:00,
2013-05-21 21:54:00,77.0,43.4,30.07,WSW,256,0.0,0.0,30,0.00,,---,0.00,VWS V14.01,2013-05-22 01:54:00,
2013-05-21 21:59:00,77.0,44.3,30.07,WSW,256,0.0,0.0,31,0.00,,---,0.00,VWS V14.01,2013-05-22 01:59:00,
2013-05-21 22:04:00,76.8,45.1,30.07,NNW,330,0.0,0.0,32,0.00,,---,0.00,VWS V14.01,2013-05-22 02:04:00,
2013-05-21 22:09:00,76.6,45.8,30.07,NNW,330,0.0,0.0,33,0.00,,---,0.00,VWS V14.01,2013-05-22 02:09:00,
2013-05-21 22:14:00,76.6,44.9,30.07,North,350,0.0,0.0,32,0.00,,---,0.00,VWS V14.01,2013-05-22 02:14:00,
2013-05-21 22:19:00,76.5,45.6,30.07,NW,318,0.0,4.0,33,0.00,,---,0.00,VWS V14.01,2013-05-22 02:19:00,
2013-05-21 22:24:00,76.3,45.5,30.07,SSW,210,0.0,4.0,33,0.00,,---,0.00,VWS V14.01,2013-05-22 02:24:00,
2013-05-21 22:29:00,76.1,45.3,30.07,SSW,210,0.0,4.0,33,0.00,,---,0.00,VWS V14.01,2013-05-22 02:29:00,
2013-05-21 22:34:00,75.7,45.0,30.07,SSW,210,0.0,4.0,33,0.00,,---,0.00,VWS V14.01,2013-05-22 02:34:00,
2013-05-21 22:39:00,75.4,44.7,30.07,SSW,210,0.0,4.0,33,0.00,,---,0.00,VWS V14.01,2013-05-22 02:39:00,
2013-05-21 22:44:00,75.2,45.4,30.07,SSW,210,0.0,4.0,35,0.00,,---,0.00,VWS V14.01,2013-05-22 02:44:00,
2013-05-21 22:49:00,75.0,45.2,30.07,SSW,210,0.0,4.0,35,0.00,,---,0.00,VWS V14.01,2013-05-22 02:49:00,
2013-05-21 22:54:00,74.8,45.0,30.07,SSW,210,0.0,4.0,35,0.00,,---,0.00,VWS V14.01,2013-05-22 02:54:00,
2013-05-21 22:59:00,74.5,44.7,30.07,SSW,210,0.0,4.0,35,0.00,,---,0.00,VWS V14.01,2013-05-22 02:59:00,
2013-05-21 23:04:00,73.9,45.1,30.07,SSW,210,0.0,0.0,36,0.00,,---,0.00,VWS V14.01,2013-05-22 03:04:00,
2013-05-21 23:09:00,73.6,44.8,30.07,SSW,210,0.0,0.0,36,0.00,,---,0.00,VWS V14.01,2013-05-22 03:09:00,
2013-05-21 23:14:00,73.2,45.2,30.07,SSW,210,0.0,0.0,37,0.00,,---,0.00,VWS V14.01,2013-05-22 03:14:00,
2013-05-21 23:19:00,72.9,44.9,30.07,SSW,210,0.0,0.0,37,0.00,,---,0.00,VWS V14.01,2013-05-22 03:19:00,
2013-05-21 23:24:00,72.5,45.3,30.07,SSW,210,0.0,0.0,38,0.00,,---,0.00,VWS V14.01,2013-05-22 03:24:00,
2013-05-21 23:29:00,72.3,45.9,30.07,SSW,210,0.0,0.0,39,0.00,,---,0.00,VWS V14.01,2013-05-22 03:29:00,
2013-05-21 23:34:00,72.0,46.3,30.07,SSW,209,0.0,0.0,40,0.00,,---,0.00,VWS V14.01,2013-05-22 03:34:00,
2013-05-21 23:39:00,71.6,46.7,30.07,SSW,210,0.0,0.0,41,0.00,,---,0.00,VWS V14.01,2013-05-22 03:39:00,
2013-05-21 23:44:00,71.2,46.4,30.07,SSW,210,0.0,0.0,41,0.00,,---,0.00,VWS V14.01,2013-05-22 03:44:00,
2013-05-21 23:49:00,71.2,46.4,30.07,SSW,209,0.0,0.0,41,0.00,,---,0.00,VWS V14.01,2013-05-22 03:49:00,
2013-05-21 23:54:00,71.1,46.9,30.07,SSW,209,0.0,0.0,42,0.00,,---,0.00,VWS V14.01,2013-05-22 03:54:00,
2013-05-21 23:59:00,70.7,46.6,30.07,SSW,210,0.0,0.0,42,0.00,,---,0.00,VWS V14.01,2013-05-22 03:59:00,